Regional Weather Roundup
Issued by NWS Wakefield, VA

Home | Current Version | Previous Version | Graphics & Text | Print | Product List | Glossary On
Versions: 1 2 3 4 5 6 7 8 9 10 11 12 13 14 15 16 17 18 19 20 21 22 23 24 25 26 27 28 29 30 31 32 33 34 35 36 37 38 39 40 41 42 43 44 45 46 47 48 49 50
000
ASUS41 KAKQ 312015
RWRAKQ

REGIONAL WEATHER ROUNDUP
NATIONAL WEATHER SERVICE WAKEFIELD VA
400 PM EDT FRI JUL 31 2015

Note: "fair" indicates few or no clouds below 12,000 feet with no
significant weather and/or obstructions to visibility. * = Denotes
station may not report precipitation (e.g., rain,snow,etc.),
thunder or fog.

VAZ042-051-052>054-056-312100-
NORTHERN VIRGINIA

CITY           SKY/WX    TMP DP  RH WIND       PRES   REMARKS
WASH NATIONAL  MOSUNNY   91  58  32 N15       29.89F
DULLES         MOSUNNY   87  60  40 W12       29.90F
FORT BELVOIR   SUNNY     88  59  37 NW8       29.89F
QUANTICO       MOSUNNY   87  58  37 W3        29.86F
FREDERICKSBRG* SUNNY     89  60  37 W7        29.89F
STAFFORD*      MOSUNNY   86  58  39 W7        29.94F
WARRENTON      SUNNY     88  63  43 W3        29.91F
CULPEPER*      MOSUNNY   85  59  42 CALM      29.92F
MANASSAS*      MOSUNNY   88  61  40 CALM      29.91F
LEESBURG*      SUNNY     88  63  42 NW8       29.91F
WINCHESTER     MOSUNNY   90  57  33 W5        29.92F
FRONT ROYAL*   MOCLDY    82  59  44 CALM      29.92F
LURAY*         FAIR      90  55  31 W3        29.94F
$$

VAZ048-049-060>072-079>083-312100-
CENTRAL AND SOUTH CENTRAL VIRGINIA

CITY           SKY/WX    TMP DP  RH WIND       PRES   REMARKS
RICHMOND       MOSUNNY   90  61  37 N6        29.89F
CHESTERFIELD*  FAIR      90  57  33 N12       29.91F
PETERSBURG*    SUNNY     89  67  47 W8        29.91F
HANOVER        SUNNY     87  61  41 VRB3      29.92F
TAPPAHANNOCK*  SUNNY     87  60  39 CALM      29.90F
QUINTON*       FAIR      87  63  44 N3        29.89F
CHARLOTTSVILLE MOSUNNY   87  58  37 CALM      29.93F
GORDONSVILLE*  FAIR      84  61  45 CALM      29.92F
ORANGE*        SUNNY     88  61  40 CALM      29.94F
LOUISA*        SUNNY     90  59  35 W10       29.91F
BUMPASS*       FAIR      86  59  39 N6        29.91F
FARMVILLE*     MOSUNNY   89  53  29 W7        29.91F
CREWE*         FAIR     N/A N/A N/A NW6       29.92F
FORT PICKETT*  FAIR      89  59  36 NW10G20   29.92F
CHASE CITY*    FAIR      88  64  43 W6        29.93F
CLARKSVILLE*   FAIR      88  63  42 N7        29.93F
SOUTH HILL*    SUNNY     87  64  44 NW3       29.97F
LAWRENCEVILLE* MOCLDY    88  64  45 NW7       29.91F
EMPORIA*       MOSUNNY   86  63  45 CALM      29.91F
$$

VAZ088>098-312100-
SOUTHEAST VIRGINIA

CITY           SKY/WX    TMP DP  RH WIND       PRES   REMARKS
NORFOLK        SUNNY     86  61  42 N12       29.89F
VIRGINIA BEACH MOSUNNY   90  60  36 N14       29.88F
NORFOLK NAVAL  MOSUNNY   86  63  45 NE10      29.90F
WEST POINT*    SUNNY     90  57  33 W8        29.90F
SALUDA*        FAIR      86  62  45 NW6       29.89F
NEWPORT NEWS   MOSUNNY   89  65  44 N6        29.89F
LANGLEY AFB    SUNNY     86  66  51 NE9       29.88F
FORT EUSTIS    SUNNY     88  62  41 VRB3      29.87F
WILLIAMSBURG*  SUNNY     93  68  43 NW9       29.90F HX  97
HR EXEC AP*    FAIR      90  66  45 N5        29.90F
FRANKLIN*      MOSUNNY   87  65  49 N6        29.89F
WAKEFIELD      SUNNY     90  63  40 NW5       29.89F
$$

VAZ020-022-025-037-045-312100-
WEST CENTRAL AND SOUTHWEST VIRGINIA

CITY           SKY/WX    TMP DP  RH WIND       PRES   REMARKS
STAUNTON*      MOSUNNY   88  54  30 NW3       29.98F
WAYNESBORO*    FAIR      83  59  45 W7        29.98F
HOT SPRINGS VA PTSUNNY   76  54  45 W9        30.10F
LYNCHBURG      SUNNY     85  59  41 VRB7      29.97F
DANVILLE       SUNNY     88  62  41 N5        29.95F
SOUTH BOSTON*  FAIR      87  60  40 SW6       29.93F
MARTINSVILLE   MOSUNNY   89  52  28 NE5       29.99F
ROANOKE        MOSUNNY   88  56  33 N9        29.98F
BLACKSBURG     SUNNY     82  58  43 N3        30.06F
DUBLIN*          N/A     83  57  41 N3        30.06F
MARION*        SUNNY     79  57  46 W10       30.10F
HILLSVILLE*    SUNNY     79  56  45 N3        30.06F
RICHLANDS*     MOCLDY    77  56  46 N5        30.10F
WISE*          SUNNY     82  50  32 NW5       30.12F
ABINGDON*      MOSUNNY   82  52  35 NW7       30.07F
$$

MDZ021>025-VAZ099-100-312100-
SOUTHERN MARYLAND AND THE DELMARVA PENINSULA

CITY           SKY/WX    TMP DP  RH WIND       PRES   REMARKS
PATUXENT RIVER MOSUNNY   86  62  44 E3        29.88F
BAY BRIDGE APT   N/A     88  54  31 N3        29.87F
LEONARDTOWN    PTSUNNY   86  57  37 CALM      29.90F
DOVER          SUNNY     85  62  44 NW9       29.85F
GEORGETOWN     SUNNY     88  57  34 N6        29.87F
EASTON         MOSUNNY   88  61  40 VRB6      29.91
CAMBRIDGE      SUNNY     86  54  32 N8        29.87F
SALISBURY      SUNNY     88  60  38 NW9G17    29.86F
OCEAN CITY     SUNNY     87  57  35 NE8       29.86F
WALLOPS ISLAND SUNNY     89  61  38 VRB5      29.87F
ACCOMACK*      SUNNY     86  61  42 NW9       29.88F
$$

NCZ012>017-030>032-312100-
NORTH CENTRAL AND EASTERN NORTH CAROLINA

CITY           SKY/WX    TMP DP  RH WIND       PRES   REMARKS
ROANOKE RAPIDS FAIR      88  63  42 NW3       29.89F
RALEIGH        MOSUNNY   90  64  42 NE5       29.92F
ELIZABETH CITY SUNNY     87  62  43 NE9       29.88F
AHOSKIE*       MOSUNNY   87  67  51 N8        29.89F
EDENTON*         N/A     89  65  44 NE3       29.88F
CURRITUCK*     SUNNY     87  59  38 NE10      29.89F
KILL DEVIL HLS SUNNY     88  65  46 NE6       29.88S
MANTEO         SUNNY     85  67  54 NE14G20   29.89F
CAPE HATTERAS  PTSUNNY   86  75  69 VRB7G16   29.88F HX  95
TARBORO*         N/A     92  66  42 N7        29.89F
GOLDSBORO      SUNNY     92  68  45 N5        29.86F HX  96
WASHINGTON     SUNNY     87  73  63 E5        29.88F HX  95
GREENVILLE     PTSUNNY   91  70  49 NE7       29.90F HX  97
NEW BERN       MOSUNNY   90  74  59 CALM      29.89F HX  99
WILMINGTON     PTSUNNY   90  77  65 SE7       29.87F HX 103
$$

VAZ048-312100-
ELSEWHERE

CITY           SKY/WX    TMP DP  RH WIND       PRES   REMARKS
HARRISBURG PA  MOSUNNY   87  56  34 W8        29.87F
BALTIMORE      MOSUNNY   89  56  32 NW7       29.87F
ANNAPOLIS      SUNNY     87  58  37 NW7       29.87F
ANDREWS AFB    MOSUNNY   89  54  30 SW8G18    29.88F
PHILADELPHIA   MOSUNNY   90  54  29 W7G17     29.85F
HENDERSON NC   SUNNY     87  57  36 N3        29.93F
GREENSBORO     MOSUNNY   88  57  34 N9        29.95F
ROCKY MOUNT    SUNNY     93  63  36 VRB3      29.89F
$$

VAZ100-312100-
MARINE

STATION/POSITION TIME  TEMP    WIND        PRES    WAVE   SWELL
                       AIR SEA DIR/SP/G            HT/PER HT/PER
                 (UTC) (F)     (DEG/KT/KT) (MB)    (FT/S) (FT/S)
BRANDYWINE LGT   1900   83 79   CALM  /  1 1012.3F
CAPE MAY NJ      1900   82 82  280/  8/ 10 1011.6F
LEWES DE         1900   81 74   50/  3/  4 1011.9F
15NM E FENWICK I 1950   81 80  330/  6/  6 1011.5F   3/ 7   3/ 7
OCEAN-CITY-INLET 1900   84 78   80/  8/ 11 1011.0F
GOOSES REEF MD   2000   85 85  170/  2/  4 1012.7F
COVE POINT MD    1900   83      70/  3/  3 1013.3F
SOLOMONS ISLAND  1900      83                N/A
BISHOPS HEAD MD  1900   84 85  290/ 12/ 13 1011.6F
PINEY POINT MD   1900          310/  7/  8   N/A
POTOMAC MD       1900   85 85   80/  2/  4 1011.7F   0
CAMBRIDGE MD     1900   84 84  300/  5/  8 1011.6F
LEWISETTA VA     1900   85 83  360/  5/  6 1012.2F
RAPPAHANNOCK LGT 1900          330/ 10/ 11 1013.0F
STINGRAY PT      2000   84 85   40/  6/  8 1012.1F   1
YORK RVR RNG VA  1900   83      60/ 11/ 14 1012.0F
YORKTOWN VA      1900   84 85  310/  9/ 11 1012.3F
JAMESTOWN VA     2000   85 87  320/  6/ 10   N/A
DOMINION TERM VA 1900   84     330/  8/ 10 1012.4F
KIPTOPEKE VA     1900      82  330/ 12/ 14   N/A
CHES BAY BRIDGE  1900   82 81  350/ 14/ 16 1012.0F
CAPE HENRY VA    1900   82     350/ 15/ 17   N/A
CHESAPEAKE LGHT  1900   81      20/ 10/ 11 1012.8F
WILLOUBY STN VA  1900   82      30/ 12/ 13 1013.5F
CAPE HENRY BUOY  1928      81                N/A     3/ 4   2/11
1ST LANDING BUOY 2000      80              1011.8F   2/ 3
CAPE CHARLES BUO 1926      81                N/A     3/ 4   2/ 8
OFFSHORE WE BUOY 1911      82                N/A     4/ 4   3/ 7
64NM E OF VA BCH 1950   82 82   20/ 16/ 17 1010.9F   4/ 8   3/ 8
DUCK PIER NC     1900   80 71   10/ 13/ 16 1011.4F
44100 DUCK FRF   1924      81                N/A     4/ 4
44056 DUCK FRF   1911      80                N/A     3/ 4
OREGON INLET NC  1900   83 84  360/  8/ 14 1012.1F
HATTERAS NC      1900   81 83   20/ 10/ 14 1011.9R
DIAMOND SHLS NC  1950   81 86   10/ 14/ 16 1011.6F   4/ 8   3/ 8
CAPE LOOKOUT NC  2000   85     230/ 10/ 14 1011.1F
$$



USA.gov is the U.S. government's official web portal to all federal, state and local government web resources and services.